When you browse on this site, cookies collect data to enhance your experience and personalize the content and advertising you see.
Visit our Privacy Policy to learn more. By continuing to use the site, you agree to this use of cookies and data.
  • In Lithuania
  • List of Countries
  • For 7 days
  • Water Temperature
  • Satellite Maps
  • Weather Map
  • Weather Widgets
  • user-avatar
    Login

    Hourly Weather Hriply

    Today, 22 February, Friday

    Time Temperature Precipitation Wind Pressure Humidity
    00:00 -15°C° 0.1 mm 6 mps 740 mmHg 81%
    01:00 -15°C° 0.1 mm 6 mps 741 mmHg 81%
    02:00 -15°C° 0 mm 6 mps 741 mmHg 82%
    03:00 -15°C° 0.1 mm 6 mps 742 mmHg 81%
    04:00 -15°C° 0.1 mm 6 mps 742 mmHg 81%
    05:00 -15°C° 0.1 mm 7 mps 743 mmHg 81%
    06:00 -15°C° 0.1 mm 7 mps 743 mmHg 80%
    07:00 -15°C° 0.1 mm 7 mps 744 mmHg 79%
    08:00 -15°C° 0 mm 7 mps 745 mmHg 78%
    09:00 -14°C° 0 mm 7 mps 746 mmHg 76%
    10:00 -14°C° 0 mm 7 mps 747 mmHg 75%
    11:00 -13°C° 0 mm 7 mps 747 mmHg 73%
    12:00 -13°C° 0 mm 7 mps 748 mmHg 74%
    13:00 -12°C° 0 mm 7 mps 749 mmHg 74%
    14:00 -11°C° 0 mm 6 mps 749 mmHg 74%
    15:00 -11°C° 0 mm 6 mps 750 mmHg 76%
    16:00 -11°C° 0 mm 5 mps 751 mmHg 78%
    17:00 -11°C° 0 mm 5 mps 751 mmHg 80%
    18:00 -12°C° 0 mm 5 mps 752 mmHg 83%
    19:00 -12°C° 0 mm 4 mps 752 mmHg 86%
    20:00 -14°C° 0 mm 4 mps 753 mmHg 89%
    21:00 -13°C° 0 mm 3 mps 753 mmHg 89%
    22:00 -14°C° 0 mm 3 mps 754 mmHg 89%
    23:00 -15°C° 0 mm 3 mps 754 mmHg 89%

    Tomorrow, 23 February, Saturday

    Time Temperature Precipitation Wind Pressure Humidity
    00:00 -14°C° 0 mm 2 mps 754 mmHg 91%
    01:00 -15°C° 0 mm 2 mps 754 mmHg 93%
    02:00 -15°C° 0 mm 2 mps 754 mmHg 95%
    03:00 -15°C° 0 mm 2 mps 754 mmHg 94%
    04:00 -14°C° 0 mm 2 mps 754 mmHg 93%
    05:00 -14°C° 0 mm 2 mps 754 mmHg 92%
    06:00 -13°C° 0 mm 2 mps 754 mmHg 87%
    07:00 -13°C° 0 mm 3 mps 753 mmHg 81%
    08:00 -12°C° 0 mm 3 mps 753 mmHg 75%
    09:00 -11°C° 0 mm 4 mps 752 mmHg 74%
    10:00 -10°C° 0 mm 4 mps 752 mmHg 73%
    11:00 -10°C° 0 mm 5 mps 751 mmHg 72%
    12:00 -10°C° 0.5 mm 5 mps 750 mmHg 79%
    13:00 -10°C° 0.5 mm 5 mps 749 mmHg 85%
    14:00 -10°C° 0.5 mm 5 mps 749 mmHg 92%
    15:00 -10°C° 0.8 mm 5 mps 748 mmHg 91%
    16:00 -8°C° 0.8 mm 5 mps 747 mmHg 91%
    17:00 -8°C° 0.8 mm 5 mps 747 mmHg 90%
    18:00 -7°C° 0.4 mm 5 mps 746 mmHg 91%
    19:00 -6°C° 0.4 mm 5 mps 746 mmHg 92%
    20:00 -5°C° 0.4 mm 5 mps 746 mmHg 93%
    21:00 -4°C° 0.1 mm 5 mps 745 mmHg 93%
    22:00 -2°C° 0.1 mm 5 mps 745 mmHg 94%
    23:00 -1°C° 0.1 mm 4 mps 745 mmHg 94%

    Day after tomorrow, 24 February, Sunday

    Time Temperature Precipitation Wind Pressure Humidity
    00:00 -1°C° 0.1 mm 4 mps 745 mmHg 95%
    01:00 -1°C° 0.1 mm 4 mps 745 mmHg 95%
    02:00 -1°C° 0.1 mm 4 mps 745 mmHg 96%
    03:00 0°C° 0 mm 3 mps 745 mmHg 96%
    04:00 0°C° 0 mm 3 mps 745 mmHg 96%
    05:00 0°C° 0 mm 3 mps 745 mmHg 97%
    06:00 0°C° 0 mm 3 mps 746 mmHg 97%
    07:00 0°C° 0 mm 3 mps 746 mmHg 97%
    08:00 0°C° 0 mm 3 mps 746 mmHg 97%
    09:00 0°C° 0 mm 3 mps 746 mmHg 98%
    10:00 0°C° 0 mm 3 mps 747 mmHg 98%
    11:00 0°C° 0 mm 3 mps 747 mmHg 99%
    12:00 0°C° 0 mm 3 mps 747 mmHg 98%
    13:00 0°C° 0 mm 3 mps 746 mmHg 98%
    14:00 0°C° 0 mm 3 mps 746 mmHg 98%
    15:00 0°C° 0 mm 3 mps 746 mmHg 97%
    16:00 0°C° 0 mm 3 mps 746 mmHg 96%
    17:00 0°C° 0 mm 3 mps 745 mmHg 95%
    18:00 0°C° 0.1 mm 3 mps 745 mmHg 96%
    19:00 0°C° 0.1 mm 3 mps 745 mmHg 96%
    20:00 0°C° 0.1 mm 3 mps 744 mmHg 97%
    21:00 0°C° 0.2 mm 3 mps 744 mmHg 96%
    22:00 -1°C° 0.2 mm 4 mps 743 mmHg 96%
    23:00 -1°C° 0.2 mm 4 mps 742 mmHg 96%

    25 February, Monday

    Time Temperature Precipitation Wind Pressure Humidity
    00:00 -1°C° 0.1 mm 4 mps 742 mmHg 95%
    01:00 -1°C° 0.1 mm 5 mps 741 mmHg 93%
    02:00 -1°C° 0.1 mm 5 mps 741 mmHg 92%
    03:00 -1°C° 0.1 mm 5 mps 741 mmHg 92%
    04:00 -1°C° 0.1 mm 5 mps 740 mmHg 92%
    05:00 -1°C° 0.1 mm 5 mps 740 mmHg 92%
    06:00 -1°C° 0 mm 5 mps 740 mmHg 91%
    07:00 -1°C° 0 mm 5 mps 741 mmHg 90%
    08:00 -2°C° 0 mm 5 mps 741 mmHg 89%
    09:00 -2°C° 0 mm 5 mps 741 mmHg 89%
    10:00 -3°C° 0 mm 6 mps 741 mmHg 89%
    11:00 -3°C° 0 mm 6 mps 740 mmHg 90%
    12:00 -3°C° 0.1 mm 6 mps 740 mmHg 88%
    13:00 -3°C° 0.1 mm 6 mps 740 mmHg 87%
    14:00 -2°C° 0.1 mm 5 mps 740 mmHg 86%
    15:00 -2°C° 0.1 mm 5 mps 740 mmHg 86%
    16:00 -3°C° 0.1 mm 6 mps 740 mmHg 85%
    17:00 -3°C° 0.1 mm 6 mps 740 mmHg 85%
    18:00 -3°C° 0.1 mm 6 mps 740 mmHg 85%
    19:00 -3°C° 0.1 mm 6 mps 740 mmHg 85%
    20:00 -3°C° 0.1 mm 6 mps 740 mmHg 86%
    21:00 -2°C° 0 mm 5 mps 740 mmHg 86%
    22:00 -2°C° 0 mm 5 mps 740 mmHg 87%
    23:00 -2°C° 0 mm 5 mps 740 mmHg 88%

    26 February, Tuesday

    Time Temperature Precipitation Wind Pressure Humidity
    00:00 -3°C° 0 mm 4 mps 740 mmHg 88%
    01:00 -3°C° 0 mm 4 mps 740 mmHg 89%
    02:00 -3°C° 0 mm 4 mps 740 mmHg 90%
    03:00 -3°C° 0 mm 4 mps 740 mmHg 91%
    04:00 -4°C° 0 mm 3 mps 739 mmHg 93%
    05:00 -4°C° 0 mm 3 mps 739 mmHg 94%
    06:00 -4°C° 0.1 mm 3 mps 738 mmHg 94%
    07:00 -4°C° 0.1 mm 3 mps 737 mmHg 94%
    08:00 -4°C° 0.1 mm 3 mps 736 mmHg 94%
    09:00 -2°C° 0.7 mm 3 mps 735 mmHg 94%
    10:00 -2°C° 0.7 mm 3 mps 734 mmHg 94%
    11:00 -2°C° 0.7 mm 4 mps 734 mmHg 93%
    12:00 -1°C° 0.4 mm 4 mps 734 mmHg 93%
    13:00 -1°C° 0.4 mm 5 mps 734 mmHg 93%
    14:00 -1°C° 0.4 mm 5 mps 734 mmHg 93%
    15:00 -1°C° 0.4 mm 5 mps 734 mmHg 92%
    16:00 -1°C° 0.4 mm 5 mps 735 mmHg 91%
    17:00 -1°C° 0.4 mm 5 mps 736 mmHg 90%
    18:00 -2°C° 0.1 mm 4 mps 736 mmHg 90%
    19:00 -2°C° 0.1 mm 4 mps 737 mmHg 91%
    20:00 -1°C° 0.1 mm 3 mps 738 mmHg 91%
    21:00 -2°C° 0 mm 3 mps 739 mmHg 92%
    22:00 -2°C° 0 mm 3 mps 739 mmHg 92%
    23:00 -2°C° 0 mm 2 mps 740 mmHg 92%

    27 February, Wednesday

    Time Temperature Precipitation Wind Pressure Humidity
    00:00 -2°C° 0 mm 2 mps 740 mmHg 93%
    01:00 -2°C° 0 mm 2 mps 741 mmHg 94%
    02:00 -2°C° 0 mm 2 mps 741 mmHg 95%
    03:00 -2°C° 0 mm 2 mps 741 mmHg 95%
    04:00 -2°C° 0 mm 2 mps 741 mmHg 96%
    05:00 -2°C° 0 mm 2 mps 741 mmHg 97%
    06:00 -2°C° 0 mm 2 mps 741 mmHg 96%
    07:00 -2°C° 0 mm 2 mps 741 mmHg 96%
    08:00 -1°C° 0 mm 2 mps 741 mmHg 95%
    09:00 -1°C° 0 mm 3 mps 740 mmHg 94%
    10:00 -1°C° 0 mm 3 mps 739 mmHg 94%
    11:00 -1°C° 0 mm 3 mps 738 mmHg 93%
    12:00 -1°C° 0 mm 3 mps 737 mmHg 93%
    13:00 -2°C° 0 mm 4 mps 736 mmHg 92%
    14:00 -2°C° 0 mm 4 mps 734 mmHg 92%
    15:00 -2°C° 0.3 mm 4 mps 733 mmHg 91%
    16:00 -2°C° 0.3 mm 5 mps 731 mmHg 91%
    17:00 -2°C° 0.3 mm 5 mps 730 mmHg 90%
    18:00 -2°C° 0.3 mm 5 mps 728 mmHg 88%
    19:00 -2°C° 0.3 mm 5 mps 727 mmHg 87%
    20:00 -2°C° 0.3 mm 6 mps 725 mmHg 86%
    21:00 -1°C° 0.1 mm 5 mps 724 mmHg 87%
    22:00 -1°C° 0.1 mm 5 mps 723 mmHg 89%
    23:00 -1°C° 0.1 mm 5 mps 722 mmHg 90%
    Show more